Home   Weather   Saint-Georges   Past weeks

Flag for Canada Past Weather in Saint-Georges, Quebec, Canada — Yesterday and Last 2 Weeks

Now
22 °F

Cold.


Feels Like: 18 °F
Forecast: N/A
Wind: 3 mph from Southeast

Location: Beauceville

Current Time: Dec 5, 2016 at 4:01:31 pm

Latest Report: Dec 5, 2016 at 3:00 pm


Visibility: N/A

Pressure: 29.88 "Hg

Humidity: 95%

Dew Point: 21 °F

Location of Saint-GeorgesLocation

Past Weather in Saint-Georges — Graph

°F

Saint-Georges Temperature Yesterday

Maximum temperature yesterday: 26 °F (at 12:00 am)
Minimum temperature yesterday: 11 °F (at 11:00 pm)
Average temperature yesterday: 21 °F

High & Low Weather Summary for the Past Weeks

 TemperatureHumidityPressure
High44 °F (Nov 20, 3:00 pm)100% (Nov 21, 12:00 am)30.37 "Hg (Nov 21, 12:00 am)
Low9 °F (Dec 5, 4:00 am)76% (Nov 23, 2:00 pm)29.07 "Hg (Nov 20, 7:00 pm)
Average29 °F94%29.90 "Hg
* Reported Nov 20 3:00 pm — Dec 5 3:00 pm, Saint-Georges, Weather by CustomWeather, © 2016

Note: Actual official high and low records may vary slightly from our data, if they occured in-between our weather recording intervals... More about our weather records

Advertising

Saint-Georges Weather History for the Previous 24 Hours

Scroll right to see more
 ConditionsComfort  
Time TempWeatherWind HumidityBarometerVisibility
3:00 pm
Mon, Dec 5
22 °FCold.3 mph95%29.88 "HgN/A
2:00 pm22 °FCold.5 mph93%29.88 "HgN/A
1:00 pm20 °FCold.3 mph90%29.91 "HgN/A
12:00 pm20 °FCold.2 mph95%29.92 "HgN/A
11:00 am17 °FCold.3 mph91%29.93 "HgN/A
10:00 am14 °FCold.3 mph92%30.00 "HgN/A
9:00 am13 °FCold.1 mph92%30.03 "HgN/A
8:00 am12 °FCold.2 mph92%30.03 "HgN/A
7:00 am11 °FCold.3 mph92%30.06 "HgN/A
6:00 am10 °FFrigid.2 mph93%30.06 "HgN/A
5:00 am10 °FFrigid.2 mph92%30.09 "HgN/A
4:00 am9 °FFrigid.1 mph91%30.09 "HgN/A
3:00 am11 °FCold.1 mph100%30.10 "HgN/A
2:00 am12 °FCold.2 mph93%30.12 "HgN/A
1:00 am11 °FCold.1 mph94%30.13 "HgN/A
12:00 am12 °FCold.1 mph93%30.15 "HgN/A
11:00 pm
Sun, Dec 4
11 °FCold.1 mph94%30.16 "HgN/A
10:00 pm14 °FCold.2 mph94%30.16 "HgN/A
9:00 pm13 °FCold.1 mph92%30.19 "HgN/A
8:00 pm15 °FCold.2 mph94%30.19 "HgN/A
7:00 pm16 °FCold.2 mph93%30.20 "HgN/A
6:00 pm18 °FCold.3 mph90%30.20 "HgN/A
5:00 pm20 °FCold.3 mph87%30.20 "HgN/A
4:00 pm21 °FCold.5 mph85%30.20 "HgN/A
Weather by CustomWeather, © 2016

See weather overviewHow to use our weather pages